ANA583 RKSI-RJOC

Flight info

Callsign ANA583
Flight time 0h 50m
Altitude 41000
Route EGOBA2Y EGOBA Y697 LANAT G597 DANJU
Aircraft B789/H-SDE1E2E3FGHIJ2J3J4J5M1RWXY/LB1D1

Departure

Time 2026-05-07 11:58
Airport Incheon International Airport (RKSI)

Arrival

Time 2026-05-07 12:49
Airport Izumo Enmusubi Airport (RJOC)
Time Latitude Longitude Altitude Speed Heading
2026-05-07 11:49 37.45388 126.44276 28 ft 0 kts 323°
2026-05-07 11:49 37.45384 126.44281 28 ft 4 kts 324°
2026-05-07 11:50 37.45361 126.44299 26 ft 4 kts 329°
2026-05-07 11:50 37.45342 126.44316 25 ft 4 kts 301°
2026-05-07 11:50 37.45335 126.44340 28 ft 4 kts 274°
2026-05-07 11:50 37.45339 126.44368 24 ft 4 kts 239°
2026-05-07 11:51 37.45352 126.44392 25 ft 1 kts 235°
2026-05-07 11:51 37.45355 126.44397 25 ft 0 kts 235°
2026-05-07 11:53 37.45353 126.44394 28 ft 3 kts 234°
2026-05-07 11:54 37.45328 126.44349 28 ft 8 kts 235°
2026-05-07 11:54 37.45292 126.44284 28 ft 10 kts 234°
2026-05-07 11:54 37.45246 126.44201 28 ft 13 kts 235°
2026-05-07 11:54 37.45197 126.44124 28 ft 7 kts 212°
2026-05-07 11:55 37.45137 126.44125 28 ft 12 kts 178°
2026-05-07 11:55 37.45071 126.44066 27 ft 13 kts 235°
2026-05-07 11:55 37.45013 126.43961 28 ft 15 kts 233°
2026-05-07 11:55 37.44941 126.43910 28 ft 8 kts 161°
2026-05-07 11:56 37.44864 126.43975 28 ft 19 kts 146°
2026-05-07 11:56 37.44748 126.44078 28 ft 22 kts 145°
2026-05-07 11:56 37.44619 126.44191 28 ft 24 kts 144°
2026-05-07 11:56 37.44536 126.44265 27 ft 0 kts 144°
2026-05-07 11:57 37.44510 126.44289 27 ft 10 kts 144°
2026-05-07 11:57 37.44441 126.44300 27 ft 10 kts 209°
2026-05-07 11:57 37.44389 126.44227 32 ft 13 kts 232°
2026-05-07 11:57 37.44363 126.44167 31 ft 3 kts 276°
2026-05-07 11:58 37.44377 126.44142 31 ft 9 kts 316°
2026-05-07 11:58 37.44537 126.43998 28 ft 66 kts 324°
2026-05-07 11:58 37.45173 126.43432 31 ft 155 kts 324°
2026-05-07 11:58 37.46150 126.42624 657 ft 174 kts 327°
2026-05-07 11:59 37.47176 126.41735 1168 ft 185 kts 320°
2026-05-07 11:59 37.48137 126.40601 1528 ft 198 kts 309°
2026-05-07 11:59 37.48964 126.39148 1956 ft 210 kts 305°
2026-05-07 11:59 37.49840 126.37641 2504 ft 216 kts 306°
2026-05-07 12:00 37.50385 126.35955 2888 ft 228 kts 282°
2026-05-07 12:00 37.50485 126.33849 3369 ft 238 kts 272°
2026-05-07 12:00 37.50506 126.31721 3831 ft 246 kts 272°
2026-05-07 12:00 37.50543 126.29551 4422 ft 249 kts 272°
2026-05-07 12:01 37.50601 126.27359 5023 ft 252 kts 273°
2026-05-07 12:01 37.50661 126.25115 5710 ft 258 kts 272°
2026-05-07 12:01 37.50714 126.22880 6656 ft 255 kts 272°
2026-05-07 12:01 37.50603 126.20645 7358 ft 261 kts 256°
2026-05-07 12:02 37.49793 126.18629 8165 ft 265 kts 237°
2026-05-07 12:02 37.48364 126.17120 8980 ft 274 kts 214°
2026-05-07 12:02 37.46586 126.16216 9857 ft 277 kts 205°
2026-05-07 12:02 37.44754 126.15397 10481 ft 285 kts 205°
2026-05-07 12:03 37.42762 126.14787 10749 ft 313 kts 187°
2026-05-07 12:03 37.40523 126.15235 11072 ft 343 kts 166°
2026-05-07 12:03 37.38417 126.16854 11487 ft 369 kts 143°
2026-05-07 12:03 37.36640 126.19231 12225 ft 377 kts 135°
2026-05-07 12:04 37.34998 126.21845 12928 ft 384 kts 132°
2026-05-07 12:04 37.33488 126.24660 13509 ft 397 kts 121°
2026-05-07 12:04 37.32656 126.28020 14102 ft 410 kts 101°
2026-05-07 12:04 37.32528 126.31618 14754 ft 414 kts 92°
2026-05-07 12:05 37.32548 126.35255 15410 ft 419 kts 91°
2026-05-07 12:05 37.32556 126.38929 16005 ft 423 kts 93°
2026-05-07 12:05 37.32504 126.42649 16609 ft 428 kts 94°
2026-05-07 12:05 37.32441 126.46404 17189 ft 433 kts 94°
2026-05-07 12:06 37.32406 126.50205 17741 ft 438 kts 94°
2026-05-07 12:06 37.32378 126.54049 18317 ft 442 kts 95°
2026-05-07 12:06 37.32352 126.56618 18627 ft 445 kts 95°
2026-05-07 12:06 37.32300 126.60528 19091 ft 451 kts 95°
2026-05-07 12:07 37.32248 126.64486 19541 ft 456 kts 95°
2026-05-07 12:07 37.32202 126.68498 19977 ft 462 kts 95°
2026-05-07 12:07 37.32155 126.72554 20423 ft 467 kts 95°
2026-05-07 12:07 37.32108 126.76653 20828 ft 472 kts 95°
2026-05-07 12:08 37.32062 126.80796 21271 ft 477 kts 95°
2026-05-07 12:08 37.32015 126.84980 21702 ft 482 kts 95°
2026-05-07 12:08 37.31963 126.89209 22121 ft 487 kts 95°
2026-05-07 12:08 37.31908 126.93480 22557 ft 492 kts 95°
2026-05-07 12:09 37.31994 126.97801 22858 ft 502 kts 86°
2026-05-07 12:09 37.32770 127.02098 23268 ft 507 kts 72°
2026-05-07 12:09 37.34202 127.06146 23684 ft 508 kts 58°
2026-05-07 12:09 37.35980 127.09995 24049 ft 511 kts 57°
2026-05-07 12:10 37.37785 127.13861 24403 ft 515 kts 57°
2026-05-07 12:10 37.39576 127.17776 24757 ft 518 kts 58°
2026-05-07 12:10 37.41361 127.21732 25109 ft 522 kts 58°
2026-05-07 12:10 37.43171 127.25717 25357 ft 527 kts 58°
2026-05-07 12:11 37.45009 127.29719 25688 ft 529 kts 58°
2026-05-07 12:11 37.46838 127.33737 26138 ft 529 kts 58°
2026-05-07 12:11 37.48505 127.37884 26346 ft 536 kts 68°
2026-05-07 12:11 37.49569 127.42395 26646 ft 538 kts 79°
2026-05-07 12:12 37.50271 127.47029 27076 ft 540 kts 83°
2026-05-07 12:12 37.50902 127.51713 27360 ft 544 kts 82°
2026-05-07 12:12 37.51647 127.56395 27730 ft 547 kts 80°
2026-05-07 12:12 37.52477 127.61092 28053 ft 551 kts 79°
2026-05-07 12:13 37.53254 127.65830 28396 ft 554 kts 81°
2026-05-07 12:13 37.53964 127.70612 28722 ft 557 kts 82°
2026-05-07 12:13 37.54695 127.75406 29112 ft 559 kts 81°
2026-05-07 12:13 37.55485 127.80221 29521 ft 562 kts 81°
2026-05-07 12:14 37.56274 127.85057 29893 ft 565 kts 81°
2026-05-07 12:14 37.57024 127.89924 30259 ft 566 kts 82°
2026-05-07 12:14 37.57768 127.94803 30696 ft 566 kts 82°
2026-05-07 12:14 37.58533 127.99666 31191 ft 564 kts 81°
2026-05-07 12:15 37.59302 128.04497 31750 ft 561 kts 81°
2026-05-07 12:15 37.60053 128.09322 32282 ft 559 kts 82°
2026-05-07 12:15 37.60787 128.14135 32704 ft 561 kts 82°
2026-05-07 12:15 37.61535 128.19012 32767 ft 572 kts 82°
2026-05-07 12:16 37.62307 128.23983 32732 ft 583 kts 81°
2026-05-07 12:16 37.63876 128.34193 32742 ft 603 kts 81°
2026-05-07 12:17 37.65478 128.44725 33098 ft 616 kts 81°
2026-05-07 12:17 37.66290 128.50044 33526 ft 617 kts 81°
2026-05-07 12:17 37.67095 128.55360 34028 ft 617 kts 82°
2026-05-07 12:17 37.67883 128.60607 34427 ft 617 kts 82°
2026-05-07 12:18 37.68565 128.65957 34656 ft 617 kts 88°
2026-05-07 12:18 37.68649 128.71329 34795 ft 608 kts 98°
2026-05-07 12:18 37.68091 128.76563 34819 ft 597 kts 108°
2026-05-07 12:18 37.66908 128.81529 34816 ft 584 kts 119°
2026-05-07 12:19 37.62749 128.90860 34834 ft 566 kts 132°
2026-05-07 12:19 37.46293 129.24939 34840 ft 569 kts 130°
2026-05-07 12:20 37.19115 129.80588 34772 ft 569 kts 130°
2026-05-07 12:20 36.98400 130.22421 34826 ft 565 kts 130°
2026-05-07 12:21 36.88355 130.42508 34831 ft 564 kts 130°
2026-05-07 12:21 36.84189 130.50805 34831 ft 562 kts 129°
2026-05-07 12:22 36.80046 130.59046 34833 ft 560 kts 129°
2026-05-07 12:22 36.75892 130.67272 34836 ft 561 kts 129°
2026-05-07 12:23 36.71732 130.75511 34839 ft 562 kts 129°
2026-05-07 12:23 36.67558 130.83745 34843 ft 562 kts 129°
2026-05-07 12:24 36.63379 130.91976 34819 ft 561 kts 129°
2026-05-07 12:24 36.59227 131.00133 34835 ft 557 kts 129°
2026-05-07 12:25 36.55064 131.08283 34837 ft 559 kts 129°
2026-05-07 12:25 36.50898 131.16437 34841 ft 557 kts 129°
2026-05-07 12:26 36.46740 131.24537 34848 ft 556 kts 129°
2026-05-07 12:26 36.42881 131.32049 34847 ft 556 kts 129°
2026-05-07 12:27 36.40244 131.37171 34854 ft 556 kts 129°
2026-05-07 12:27 36.38180 131.41179 34442 ft 546 kts 129°
2026-05-07 12:28 36.36001 131.44950 33650 ft 533 kts 136°
2026-05-07 12:28 36.33686 131.48529 32867 ft 531 kts 136°
2026-05-07 12:28 36.31373 131.52103 32107 ft 531 kts 135°
2026-05-07 12:28 36.29089 131.55682 31348 ft 526 kts 135°
2026-05-07 12:29 36.26844 131.59216 30597 ft 518 kts 135°
2026-05-07 12:29 36.24617 131.62681 29859 ft 510 kts 135°
2026-05-07 12:29 36.22408 131.66091 29042 ft 505 kts 135°
2026-05-07 12:29 36.20229 131.69471 28300 ft 500 kts 135°
2026-05-07 12:30 36.18072 131.72830 27571 ft 497 kts 135°
2026-05-07 12:30 36.15923 131.76167 26874 ft 494 kts 135°
2026-05-07 12:30 36.13796 131.79460 26173 ft 486 kts 135°
2026-05-07 12:30 36.11699 131.82703 25491 ft 479 kts 135°
2026-05-07 12:31 36.09628 131.85904 24840 ft 474 kts 135°
2026-05-07 12:31 36.07580 131.89068 24190 ft 470 kts 135°
2026-05-07 12:31 36.05538 131.92216 23547 ft 468 kts 135°
2026-05-07 12:31 36.03508 131.95346 22798 ft 464 kts 135°
2026-05-07 12:32 36.01508 131.98433 22100 ft 456 kts 135°
2026-05-07 12:32 35.99541 132.01462 21440 ft 448 kts 135°
2026-05-07 12:32 35.97608 132.04433 20828 ft 441 kts 135°
2026-05-07 12:32 35.95696 132.07363 20226 ft 437 kts 135°
2026-05-07 12:33 35.91904 132.13182 19025 ft 431 kts 135°
2026-05-07 12:33 35.90045 132.16038 18439 ft 423 kts 135°
2026-05-07 12:33 35.88215 132.18840 17804 ft 417 kts 135°
2026-05-07 12:34 35.86398 132.21611 17187 ft 414 kts 135°
2026-05-07 12:34 35.84595 132.24364 16638 ft 413 kts 135°
2026-05-07 12:34 35.82793 132.27117 16079 ft 411 kts 135°
2026-05-07 12:34 35.81022 132.29828 15530 ft 402 kts 135°
2026-05-07 12:35 35.79274 132.32493 14982 ft 399 kts 135°
2026-05-07 12:35 35.77524 132.35152 14446 ft 399 kts 134°
2026-05-07 12:35 35.75780 132.37805 13910 ft 397 kts 134°
2026-05-07 12:35 35.74089 132.40387 13323 ft 388 kts 134°
2026-05-07 12:36 35.72394 132.42967 12769 ft 388 kts 134°
2026-05-07 12:36 35.70689 132.45548 12072 ft 390 kts 134°
2026-05-07 12:36 35.68983 132.48134 11188 ft 389 kts 133°
2026-05-07 12:36 35.67376 132.50793 10296 ft 389 kts 124°
2026-05-07 12:37 35.66428 132.53915 9448 ft 393 kts 103°
2026-05-07 12:37 35.66117 132.57148 9260 ft 366 kts 102°
2026-05-07 12:37 35.65291 132.59986 8999 ft 342 kts 119°
2026-05-07 12:37 35.64202 132.62499 8754 ft 324 kts 123°
2026-05-07 12:38 35.63189 132.64904 8503 ft 311 kts 118°
2026-05-07 12:38 35.62451 132.67359 8224 ft 302 kts 111°
2026-05-07 12:38 35.61877 132.69795 7954 ft 291 kts 110°
2026-05-07 12:38 35.61270 132.72103 7836 ft 275 kts 113°
2026-05-07 12:39 35.60647 132.74243 7772 ft 258 kts 114°
2026-05-07 12:39 35.60201 132.76400 7705 ft 265 kts 104°
2026-05-07 12:39 35.59940 132.78659 7606 ft 268 kts 101°
2026-05-07 12:39 35.59665 132.80933 7465 ft 270 kts 103°
2026-05-07 12:40 35.59329 132.83211 7287 ft 271 kts 104°
2026-05-07 12:40 35.58991 132.85454 7049 ft 263 kts 104°
2026-05-07 12:40 35.58673 132.87653 6819 ft 263 kts 104°
2026-05-07 12:40 35.58347 132.89915 6581 ft 273 kts 104°
2026-05-07 12:41 35.58015 132.92226 6324 ft 274 kts 104°
2026-05-07 12:41 35.57690 132.94494 6041 ft 266 kts 104°
2026-05-07 12:41 35.57371 132.96699 5753 ft 259 kts 104°
2026-05-07 12:41 35.57058 132.98848 5469 ft 253 kts 105°
2026-05-07 12:42 35.56757 133.00923 5267 ft 244 kts 105°
2026-05-07 12:42 35.56465 133.02931 5020 ft 230 kts 105°
2026-05-07 12:42 35.56195 133.04810 4773 ft 217 kts 106°
2026-05-07 12:42 35.55927 133.06625 4541 ft 217 kts 107°
2026-05-07 12:43 35.55601 133.08397 4261 ft 208 kts 115°
2026-05-07 12:43 35.54704 133.09743 3900 ft 199 kts 149°
2026-05-07 12:43 35.53491 133.10328 3607 ft 183 kts 175°
2026-05-07 12:43 35.52272 133.10150 3355 ft 176 kts 206°
2026-05-07 12:44 35.51353 133.09188 3259 ft 173 kts 226°
2026-05-07 12:44 35.50603 133.08099 3095 ft 160 kts 236°
2026-05-07 12:44 35.50036 133.06978 3015 ft 151 kts 238°
2026-05-07 12:44 35.49507 133.05880 3007 ft 150 kts 239°
2026-05-07 12:45 35.48966 133.04763 2749 ft 150 kts 239°
2026-05-07 12:45 35.48451 133.03680 2496 ft 145 kts 238°
2026-05-07 12:45 35.47922 133.02600 2309 ft 152 kts 238°
2026-05-07 12:45 35.47390 133.01490 2108 ft 147 kts 239°
2026-05-07 12:46 35.46876 133.00416 1884 ft 146 kts 238°
2026-05-07 12:46 35.46380 132.99387 1698 ft 137 kts 238°
2026-05-07 12:46 35.45900 132.98388 1503 ft 136 kts 238°
2026-05-07 12:46 35.45407 132.97373 1314 ft 143 kts 239°
2026-05-07 12:47 35.44893 132.96305 1140 ft 139 kts 239°
2026-05-07 12:47 35.44423 132.95325 982 ft 132 kts 239°
2026-05-07 12:47 35.43950 132.94350 800 ft 133 kts 234°
2026-05-07 12:47 35.43481 132.93382 648 ft 131 kts 241°
2026-05-07 12:48 35.43031 132.92423 421 ft 129 kts 240°
2026-05-07 12:48 35.42578 132.91468 292 ft 131 kts 238°
2026-05-07 12:48 35.42111 132.90520 121 ft 129 kts 237°
2026-05-07 12:48 35.41653 132.89580 31 ft 125 kts 238°
2026-05-07 12:49 35.41266 132.88782 17 ft 76 kts 239°
2026-05-07 12:49 35.41121 132.88483 16 ft 33 kts 239°
2026-05-07 12:49 35.41004 132.88243 18 ft 31 kts 239°
2026-05-07 12:49 35.40907 132.88114 16 ft 10 kts 242°
2026-05-07 12:50 35.40903 132.88081 16 ft 2 kts 279°
2026-05-07 12:50 35.40915 132.88065 18 ft 5 kts 331°
2026-05-07 12:50 35.40950 132.88068 17 ft 8 kts 22°
2026-05-07 12:50 35.40990 132.88146 17 ft 16 kts 73°
2026-05-07 12:51 35.41069 132.88372 16 ft 40 kts 59°
2026-05-07 12:51 35.41199 132.88638 18 ft 23 kts 50°
2026-05-07 12:51 35.41301 132.88666 16 ft 7 kts 343°
2026-05-07 12:51 35.41311 132.88663 15 ft 4 kts 352°
2026-05-07 12:52 35.41350 132.88660 16 ft 6 kts 346°
2026-05-07 12:52 35.41382 132.88640 15 ft 2 kts 329°
2026-05-07 12:52 35.41403 132.88625 17 ft 3 kts 329°
2026-05-07 12:52 35.41416 132.88615 15 ft 0 kts 330°
2026-05-07 12:53 35.41417 132.88615 15 ft 0 kts 329°